When you browse on this site, cookies collect data to enhance your experience and personalize the content and advertising you see.
Visit our Privacy Policy to learn more. By continuing to use the site, you agree to this use of cookies and data.
  • In Switzerland
  • List of Countries
  • For 7 days
  • Water Temperature
  • Satellite Maps
  • Weather Map
  • Weather Widgets
  • user-avatar
    Login

    Hourly Weather Plav'ya

    Today, 17 July, Wednesday

    Time Temperature Precipitation Wind Pressure Humidity
    00:00 +17°C° 2 mm 3 mps 726 mmHg 100%
    01:00 +17°C° 0.3 mm 2 mps 726 mmHg 89%
    02:00 +16°C° 0 mm 2 mps 726 mmHg 91%
    03:00 +15°C° 0 mm 2 mps 726 mmHg 93%
    04:00 +15°C° 0 mm 2 mps 725 mmHg 92%
    05:00 +14°C° 0 mm 2 mps 725 mmHg 92%
    06:00 +14°C° 0 mm 2 mps 726 mmHg 95%
    07:00 +15°C° 0 mm 2 mps 726 mmHg 94%
    08:00 +16°C° 0 mm 2 mps 726 mmHg 93%
    09:00 +17°C° 0 mm 3 mps 726 mmHg 90%
    10:00 +18°C° 0 mm 3 mps 727 mmHg 88%
    11:00 +19°C° 0 mm 3 mps 727 mmHg 85%
    12:00 +20°C° 0 mm 2 mps 727 mmHg 82%
    13:00 +20°C° 0 mm 2 mps 727 mmHg 80%
    14:00 +21°C° 0 mm 3 mps 726 mmHg 78%
    15:00 +21°C° 0.1 mm 4 mps 726 mmHg 84%
    16:00 +21°C° 0 mm 3 mps 726 mmHg 86%
    17:00 +21°C° 0.1 mm 4 mps 726 mmHg 83%
    18:00 +21°C° 0 mm 4 mps 726 mmHg 79%
    19:00 +20°C° 0 mm 3 mps 726 mmHg 84%
    20:00 +19°C° 0 mm 2 mps 726 mmHg 91%
    21:00 +18°C° 0 mm 2 mps 726 mmHg 92%
    22:00 +18°C° 0 mm 2 mps 726 mmHg 92%
    23:00 +17°C° 0 mm 2 mps 727 mmHg 92%

    Tomorrow, 18 July, Thursday

    Time Temperature Precipitation Wind Pressure Humidity
    00:00 +18°C° 0 mm 1 mps 727 mmHg 89%
    01:00 +16°C° 0 mm 1 mps 727 mmHg 90%
    02:00 +16°C° 0 mm 1 mps 727 mmHg 87%
    03:00 +15°C° 0 mm 1 mps 727 mmHg 85%
    04:00 +15°C° 0 mm 1 mps 727 mmHg 84%
    05:00 +15°C° 0 mm 1 mps 727 mmHg 86%
    06:00 +14°C° 0 mm 1 mps 727 mmHg 89%
    07:00 +15°C° 0 mm 1 mps 727 mmHg 91%
    08:00 +16°C° 0 mm 1 mps 727 mmHg 90%
    09:00 +19°C° 0 mm 1 mps 728 mmHg 88%
    10:00 +19°C° 0 mm 2 mps 728 mmHg 84%
    11:00 +20°C° 0 mm 2 mps 728 mmHg 79%
    12:00 +21°C° 0 mm 2 mps 728 mmHg 75%
    13:00 +21°C° 0 mm 2 mps 728 mmHg 74%
    14:00 +23°C° 0 mm 2 mps 728 mmHg 74%
    15:00 +23°C° 0 mm 2 mps 728 mmHg 75%
    16:00 +23°C° 0 mm 1 mps 728 mmHg 75%
    17:00 +23°C° 0 mm 1 mps 728 mmHg 75%
    18:00 +23°C° 0 mm 1 mps 728 mmHg 75%
    19:00 +22°C° 0 mm 1 mps 728 mmHg 78%
    20:00 +21°C° 0 mm 1 mps 728 mmHg 86%
    21:00 +21°C° 0 mm 1 mps 728 mmHg 82%
    22:00 +20°C° 0 mm 1 mps 728 mmHg 80%
    23:00 +20°C° 0 mm 1 mps 729 mmHg 81%

    Day after tomorrow, 19 July, Friday

    Time Temperature Precipitation Wind Pressure Humidity
    00:00 +20°C° 0 mm 1 mps 729 mmHg 80%
    01:00 +20°C° 0 mm 1 mps 729 mmHg 78%
    02:00 +20°C° 0 mm 1 mps 729 mmHg 77%
    03:00 +19°C° 0 mm 1 mps 729 mmHg 78%
    04:00 +19°C° 0 mm 1 mps 729 mmHg 79%
    05:00 +18°C° 0 mm 2 mps 729 mmHg 82%
    06:00 +18°C° 0 mm 2 mps 729 mmHg 86%
    07:00 +19°C° 0 mm 2 mps 729 mmHg 91%
    08:00 +20°C° 0 mm 2 mps 729 mmHg 92%
    09:00 +21°C° 0 mm 2 mps 730 mmHg 90%
    10:00 +22°C° 0 mm 3 mps 730 mmHg 90%
    11:00 +23°C° 0 mm 2 mps 730 mmHg 86%
    12:00 +24°C° 0 mm 3 mps 730 mmHg 85%
    13:00 +22°C° 0.1 mm 6 mps 729 mmHg 88%
    14:00 +24°C° 0.3 mm 1 mps 728 mmHg 71%

    20 July, Saturday

    Time Temperature Precipitation Wind Pressure Humidity

    21 July, Sunday

    Time Temperature Precipitation Wind Pressure Humidity

    22 July, Monday

    Time Temperature Precipitation Wind Pressure Humidity
    Show more